Terminal Aerodrome Forecast
Issued by NWS Louisville, KY

Home | Current Version | Previous Version | Text Only | Print | Product List | Glossary On
Versions: 1 2 3 4 5 6 7 8 9 10 11 12 13 14 15 16 17 18 19
000
FTUS43 KLMK 270500
TAFSDF
TAF
KSDF 270531Z 2706/2812 19006KT 6SM -SHRA SCT007 BKN035 OVC060
     FM270800 25008KT P6SM VCSH BKN010 OVC025
      TEMPO 2709/2713 BKN007
     FM271500 33010KT P6SM BKN015
     FM271900 34011G19KT P6SM VCSH BKN035
     FM280000 35012KT P6SM FEW035
     FM280600 28007KT P6SM SKC=

USA.gov is the U.S. government's official web portal to all federal, state and local government web resources and services.